Вернуться в каталог

COSMOS 1229

АктивенВоенныеLEO
NORAD 12108·PAYLOAD·🇷🇺 Russia

Запущен Dec 23, 1980 с Plesetsk Cosmodrome

Loading…

Ближайшие Пролёты (ближайшие 24 часа)

TLE

СвежийSource: Space-Track

Эпоха: Sep 14, 2026, 10:50 UTC

1 12108U 80102B   26257.45201543 -.00000022  00000-0 -35914-4 0  9991
2 12108  73.9909 271.7205 0032342 334.1593  95.3346 12.56124674 96628

Отслеживайте COSMOS 1229 в реальном времени с AllMySat

Download on the App Store